Regional Weather Roundup
Issued by NWS

Home | Current Version | Previous Version | Text Only | Print | Product List | Glossary On
Versions: 1 2 3 4 5 6 7 8 9 10 11 12 13 14 15 16 17 18 19 20 21 22 23 24 25 26 27 28 29 30 31 32 33 34 35 36 37 38 39 40 41 42 43 44 45 46 47 48 49 50
000
ASUS45 KABQ 101910
RWRNM
NEW MEXICO REGIONAL WEATHER ROUNDUP
NATIONAL WEATHER SERVICE ALBUQUERQUE NM
1200 PM MST SAT DEC 10 2016

NOTE: "FAIR" MEANS FEW OR NO CLOUDS BELOW 12,000 FEET AGL WITH NO
       SIGNIFICANT WEATHER OR OBSTRUCTIONS TO VISION.

      THIS PRODUCT IS RELEASED AS TWO VERSIONS.  ONE VERSION NEAR
      THE TOP OF THE HOUR CONTAINING PRELIMINARY DATA FROM ALBUQUERQUE
      AND OTHER STATIONS.  A FINAL VERSION WITH ADDITIONAL DATA IS
      ISSUED ABOUT 10 MINUTES AFTER THE HOUR.

NMZ501-503-504-510>518-102000-
NORTHWEST PLATEAU/NORTHCENTRAL MOUNTAINS

CITY           SKY/WX    TMP DP  RH WIND       PRES   REMARKS
FARMINGTON     FAIR      45  27  49 E8        30.13F
LOS ALAMOS     FAIR      39  24  55 CALM      30.18F
SANTA FE       FAIR      45  28  51 SW10      30.16F
TAOS           FAIR      46  25  42 S9        30.15F
ANGEL FIRE     FAIR      43  24  46 W25G35    30.12F

$$
NMZ402-403-502-505>509-102000-
WESTCENTRAL MOUNTAINS/SOUTHWEST MOUNTAINS

CITY           SKY/WX    TMP DP  RH WIND       PRES   REMARKS
GALLUP         FAIR      53  23  31 SW13      30.17F
GRANTS         FAIR      49  26  40 S3        30.18F
SILVER CITY    FAIR      53  32  45 S3        30.22F

$$
NMZ407-409-411-412-102000-
SOUTHERN DESERTS

CITY           SKY/WX    TMP DP  RH WIND       PRES   REMARKS
DEMING         FAIR      51  36  56 SW7       30.22F
LAS CRUCES     FAIR      51  35  52 S5        30.23F
HOLLOMAN AFB   FAIR      49  31  50 SW7       30.25F
T OR C         FAIR      48  32  53 S9        30.20F

$$
NMZ519>523-102000-
CENTRAL VALLEYS/CENTRAL HIGHLANDS

CITY           SKY/WX    TMP DP  RH WIND       PRES   REMARKS
ALBUQUERQUE    PTSUNNY   44  30  57 S8        30.19F
DOUBLE EAGLE   PTSUNNY   43  28  56 SE7       30.19F
MORIARTY ARPT  FAIR      49  26  39 S5        30.16F
CLINES CORNERS FAIR      49  27  42 W18G25    30.14F
BELEN          FAIR      43  29  57 S8        30.19F
SOCORRO        FAIR      48  31  51 S10       30.19F

$$
NMZ524>526-539-540-102000-
SOUTHCENTRAL MOUNTAINS

CITY           SKY/WX    TMP DP  RH WIND       PRES   REMARKS
RUIDOSO        FAIR      63  18  17 NW6       30.18F

$$
NMZ527>531-102000-
NORTHEAST HIGHLANDS/NORTHEAST PLAINS

CITY           SKY/WX    TMP DP  RH WIND       PRES   REMARKS
LAS VEGAS      FAIR      60  13  15 SW23G31   30.05F
RATON          FAIR      52  22  30 W8        29.96F
CLAYTON        FAIR      68  20  16 SW18G30   29.91F

$$
NMZ532>537-102000-
EASTCENTRAL PLAINS

CITY           SKY/WX    TMP DP  RH WIND       PRES   REMARKS
TUCUMCARI      FAIR      67  28  23 W25G32    29.98F
CANNON AFB     FAIR      58  35  41 W15       30.04F
CLOVIS AIRPORT FAIR      61  34  36 SW15      30.04F

$$
NMZ028-029-538-102000-
SOUTHEAST PLAINS

CITY           SKY/WX    TMP DP  RH WIND       PRES   REMARKS
ROSWELL        PTSUNNY   38  33  82 VRB5      30.09F WCI  34
ARTESIA        PTSUNNY   37  37 100 VRB5      30.11F WCI  34
CARLSBAD       NOT AVBL


$$




USA.gov is the U.S. government's official web portal to all federal, state and local government web resources and services.